Regional Weather Roundup
Issued by NWS

Home | Current Version | Previous Version | Text Only | Print | Product List | Glossary On
Versions: 1 2 3 4 5 6 7 8 9 10 11 12 13 14 15 16 17 18 19 20 21 22 23 24 25 26 27 28 29 30 31 32 33 34 35 36 37 38 39 40 41 42 43 44 45 46 47 48 49 50
000
ASPQ40 PGUM 300412
RWRPQ
WEATHER ROUNDUP FOR THE MARIANAS AND MICRONESIA
NATIONAL WEATHER SERVICE TIYAN GU
200 PM CHST SAT AUG 30 2014

GUZ001>004-300500-
MARIANA ISLANDS-

CITY           SKY/WX    TMP DP  RH WIND       PRES   REMARKS
GUAM AIRPORT   SUNNY     86  73  66 E10       29.74F HX  93
ANDERSEN AFB   MOSUNNY   81  72  74 NE8       29.74F
ROTA AIRPORT   CLOUDY    82  77  83 E7        29.75F HX  91
TINIAN AP      LGT RAIN  79  75  89 NE3       29.73F
SAIPAN AP      MOSUNNY   84  79  84 E8        29.75F HX  96

$$

PMZ161-300500-
REPUBLIC OF PALAU-

CITY           SKY/WX    TMP DP  RH WIND       PRES   REMARKS
KOROR AP       PTSUNNY   86  79  79 W15G21    29.77F HX  99
KOROR WSO      CLOUDY    90  77  66 NW14      29.75F HX 102

$$

PMZ171>174-300500-
FEDERATED STATES OF MICRONESIA-

CITY           SKY/WX    TMP DP  RH WIND       PRES   REMARKS
YAP AIRPORT    CLOUDY    84  79  84 VRB6      29.74  HX  96
CHUUK AP       PTSUNNY   88  82  84 VRB6      29.70F HX 108
POHNPEI AP     CLOUDY    88  77  70 W7        29.69F HX 100
POHNPEI WSO    CLOUDY    86  79  79 W3        29.74F HX  99
KOSRAE AP      NOT AVBL

$$

PMZ181-300500-
REPUBLIC OF THE MARSHALL ISLANDS-

CITY           SKY/WX    TMP DP  RH WIND       PRES   REMARKS
KWAJALEIN AP   SUNNY     88  72  58 W8        29.69F HX  94
MAJURO AP      NOT AVBL
MAJURO WSO     CLOUDY    86  77  74 CALM      29.70F HX  97

$$



USA.gov is the U.S. government's official web portal to all federal, state and local government web resources and services.